Flag for Germany Weather past 2 weeks in Suhl, Thuringia, Germany

Now
39 °F

Overcast.


Feels Like: 36 °F
Forecast: 45 / 48 °F
Wind: 5 mph from West

Location: Meiningen

Current Time: Mar 28, 2015 at 5:07:21 AM

Latest Report: Mar 28, 2015 at 3:00 AM


Visibility: 25 mi

Pressure: 30.23 "Hg

Humidity: 65%

Dew point: 28 °F

Location of SuhlLocation

Historic Weather in Suhl — Graph

°F

Suhl temperature yesterday

Maximum temperature yesterday: 44 °F (at 1:00 PM)
Minimum temperature yesterday: 37 °F (at 1:00 AM)
Average temperature yesterday: 40 °F

Past Weeks' High & Low Weather Summary

 TemperatureHumidityPressure
High62 °F (Mar 25, 3:00 PM)96% (Mar 15, 6:00 AM)30.37 "Hg (Mar 15, 6:00 AM)
Low24 °F (Mar 23, 7:00 AM)23% (Mar 20, 3:00 PM)29.58 "Hg (Mar 25, 5:00 PM)
Average41 °F73%30.13 "Hg
* Reported Mar 13 3:00 AM — Mar 28 3:00 AM, Suhl, Weather by CustomWeather, © 2015

Note: Actual official high and low records may vary slightly from our data, if they occured in-between our weather recording intervals... More about our weather records

Advertising

Suhl weather history for previous 24 hours

 ConditionsComfort  
Time TempWeatherWind HumidityBarometerVisibility
3:00 AM
Sat, Mar 28
39 °FOvercast.5 mph65%30.23 "Hg25 mi
2:00 AM40 °FOvercast.3 mph69%30.23 "Hg16 mi
1:00 AM40 °FOvercast.3 mph70%30.22 "Hg16 mi
12:00 AM40 °FOvercast.3 mph69%30.22 "Hg19 mi
11:00 PM
Fri, Mar 27
41 °FOvercast.3 mph68%30.20 "Hg16 mi
9:00 PM42 °FOvercast.7 mph65%30.17 "Hg16 mi
8:00 PM42 °FOvercast.5 mph65%30.15 "Hg15 mi
7:00 PM42 °FOvercast.6 mph63%30.13 "Hg16 mi
6:00 PM42 °FOvercast.5 mph64%30.11 "Hg16 mi
5:00 PM42 °FOvercast.3 mph69%30.09 "Hg16 mi
3:00 PM42 °FDrizzle. Overcast.5 mph71%30.05 "Hg11 mi
2:00 PM42 °FOvercast.7 mph67%30.04 "Hg12 mi
1:00 PM44 °FOvercast.6 mph67%30.03 "Hg14 mi
12:00 PM42 °FLight rain. Overcast.7 mph72%30.02 "Hg12 mi
11:00 AM42 °FOvercast.6 mph68%30.00 "Hg13 mi
9:00 AM41 °FPartly sunny.3 mph78%29.96 "Hg8 mi
8:00 AM39 °FOvercast.2 mph90%29.95 "Hg5 mi
7:00 AM38 °FPartly sunny.2 mph87%29.94 "Hg6 mi
6:00 AM38 °FPassing clouds.3 mph86%29.90 "Hg7 mi
5:00 AM39 °FPassing clouds.5 mph87%29.88 "Hg6 mi
Weather by CustomWeather, © 2015

See weather overviewHow to use our weather pages